This demonstration page uses our WeatherBlox Daily Observations layout. Learn more.

Left ArrowRight Arrow

36.17497, -115.13722

Hourly Observations for April 5, 2017

Temp ( °F °C ) Dew Point ( °F °C ) Humidity (%) Winds ( mph kmh ) Pressure ( in mb ) Visibility ( mi km ) Precip ( " mm )
12:53 am 00:53 Clear 59 15 25 -3.9 27 27 N N/A 30.18 1022 10 16.0934 N/A
1:53 am 01:53 Clear 58 14.4 23 -5 26 26 ESE 5 7 30.18 1022 10 16.0934 N/A
2:53 am 02:53 Clear 56 13.3 24 -4.4 29 29 S 7 11 30.18 1022 10 16.0934 N/A
3:53 am 03:53 Clear 55 12.8 24 -4.4 30 30 S 5 7 30.17 1022 10 16.0934 N/A
4:53 am 04:53 Clear 55 12.8 24 -4.4 30 30 WSW 3 6 30.19 1022 10 16.0934 N/A
5:53 am 05:53 Clear 54 12.2 23 -5 30 30 SW 3 6 30.2 1023 10 16.0934 N/A
6:53 am 06:53 Sunny 54 12.2 23 -5 30 30 SSW 5 7 30.22 1023 10 16.0934 N/A
7:53 am 07:53 Sunny 56 13.3 24 -4.4 29 29 S 6 9 30.23 1024 10 16.0934 N/A
8:53 am 08:53 Sunny 58 14.4 24 -4.4 27 27 VRB 3 6 30.24 1024 10 16.0934 N/A
9:53 am 09:53 Sunny 62 16.7 22 -5.6 21 21 SSE 5 7 30.23 1024 10 16.0934 N/A
10:53 am 10:53 Sunny 64 17.8 20 -6.7 18 18 VRB 3 6 30.23 1024 10 16.0934 N/A
11:53 am 11:53 Sunny 67 19.4 17 -8.3 15 15 VRB 6 9 30.21 1023 10 16.0934 N/A
12:53 pm 12:53 Sunny 69 20.6 17 -8.3 14 14 SSE 9 15 30.18 1022 10 16.0934 N/A
1:53 pm 13:53 Sunny 70 21.1 16 -8.9 12 12 N N/A 30.15 1021 10 16.0934 N/A
2:53 pm 14:53 Sunny 71 21.7 15 -9.4 12 12 VRB 5 7 30.13 1020 10 16.0934 N/A
3:53 pm 15:53 Sunny 74 23.3 15 -9.4 10 10 NNE 5 7 30.1 1019 10 16.0934 N/A
4:53 pm 16:53 Sunny 74 23.3 16 -8.9 11 11 N N/A 30.08 1019 10 16.0934 N/A
5:53 pm 17:53 Sunny 73 22.8 14 -10 10 10 VRB 3 6 30.07 1018 10 16.0934 N/A
6:53 pm 18:53 Sunny 72 22.2 16 -8.9 12 12 ESE 5 7 30.06 1018 10 16.0934 N/A
7:53 pm 19:53 Clear 71 21.7 18 -7.8 13 13 N N/A 30.06 1018 10 16.0934 N/A
8:53 pm 20:53 Clear 70 21.1 19 -7.2 14 14 N N/A 30.08 1019 10 16.0934 N/A
9:53 pm 21:53 Clear 65 18.3 26 -3.3 23 23 WNW 5 7 30.08 1019 10 16.0934 N/A
10:53 pm 22:53 Clear 63 17.2 27 -2.8 26 26 WNW 5 7 30.08 1019 10 16.0934 N/A
11:53 pm 23:53 Clear 60 15.6 26 -3.3 27 27 WNW 3 6 30.08 1019 10 16.0934 N/A

Powered by AerisWeather